| time (UTC) | temp C | wind direction | speed KPH | gust KPH | rain 1hr cm | rain 24hr cm | rain mn cm | humidity % | barometer mb |
| 20260902233103 | 32 | 79 | 3.2 | 12.9 | 0.00 | 0.00 | 0.00 | 55 | 1009.7 |
| 20260902231601 | 32 | 284 | 9.7 | 22.5 | 0.00 | 0.00 | 0.00 | 55 | 1009.9 |
| 20260902230112 | 33 | 116 | 14.5 | 20.9 | 0.00 | 0.00 | 0.00 | 54 | 1010.0 |
| 20260902224609 | 33 | 128 | 14.5 | 24.1 | 0.00 | 0.00 | 0.00 | 53 | 1009.8 |
| 20260902223059 | 33 | 115 | 12.9 | 19.3 | 0.00 | 0.00 | 0.00 | 52 | 1009.9 |
| 20260902221606 | 33 | 110 | 12.9 | 20.9 | 0.00 | 0.00 | 0.00 | 52 | 1010.0 |
| 20260902220104 | 33 | 120 | 14.5 | 25.7 | 0.00 | 0.00 | 0.00 | 51 | 1010.0 |
| 20260902214606 | 33 | 103 | 4.8 | 17.7 | 0.00 | 0.00 | 0.00 | 51 | 1010.0 |
| 20260902213104 | 33 | 111 | 14.5 | 20.9 | 0.00 | 0.00 | 0.00 | 50 | 1010.2 |
| 20260902211617 | 33 | 115 | 11.3 | 25.7 | 0.00 | 0.00 | 0.00 | 52 | 1010.0 |
| 20260902210118 | 33 | 108 | 6.4 | 16.1 | 0.00 | 0.00 | 0.00 | 51 | 1010.1 |
| 20260902204605 | 33 | 100 | 11.3 | 20.9 | 0.00 | 0.00 | 0.00 | 51 | 1010.3 |
| 20260902203106 | 33 | 117 | 16.1 | 22.5 | 0.00 | 0.00 | 0.00 | 50 | 1010.3 |
| 20260902201612 | 33 | 0 | 9.7 | 17.7 | 0.00 | 0.00 | 0.00 | 50 | 1010.4 |
| 20260902200104 | 33 | 110 | 11.3 | 25.7 | 0.00 | 0.00 | 0.00 | 51 | 1010.6 |
| 20260902194604 | 33 | 135 | 9.7 | 20.9 | 0.00 | 0.00 | 0.00 | 52 | 1010.7 |
| 20260902193101 | 33 | 105 | 16.1 | 27.4 | 0.00 | 0.00 | 0.00 | 51 | 1011.0 |
| 20260902191603 | 33 | 126 | 12.9 | 22.5 | 0.00 | 0.00 | 0.00 | 51 | 1011.1 |
| 20260902190104 | 33 | 117 | 6.4 | 19.3 | 0.00 | 0.00 | 0.00 | 51 | 1011.1 |
| 20260902184600 | 33 | 291 | 4.8 | 27.4 | 0.00 | 0.00 | 0.00 | 51 | 1011.3 |
| 20260902183102 | 32 | 129 | 14.5 | 20.9 | 0.00 | 0.00 | 0.00 | 53 | 1011.4 |
| 20260902181604 | 33 | 120 | 14.5 | 24.1 | 0.00 | 0.00 | 0.00 | 52 | 1011.5 |
| 20260902180117 | 32 | 148 | 11.3 | 29.0 | 0.00 | 0.00 | 0.00 | 54 | 1011.6 |
| 20260902174602 | 32 | 110 | 11.3 | 22.5 | 0.00 | 0.00 | 0.00 | 54 | 1011.6 |
| 20260902173101 | 32 | 120 | 8.0 | 20.9 | 0.00 | 0.00 | 0.00 | 55 | 1011.9 |
| 20260902171607 | 32 | 115 | 12.9 | 25.7 | 0.00 | 0.00 | 0.00 | 55 | 1011.9 |
| 20260902170105 | 31 | 160 | 12.9 | 29.0 | 0.00 | 0.00 | 0.00 | 56 | 1012.2 |
| 20260902164601 | 31 | 114 | 9.7 | 17.7 | 0.00 | 0.00 | 0.00 | 56 | 1012.1 |
| 20260902163102 | 31 | 115 | 11.3 | 19.3 | 0.00 | 0.00 | 0.00 | 56 | 1012.5 |
| 20260902161609 | 31 | 108 | 4.8 | 19.3 | 0.00 | 0.00 | 0.00 | 58 | 1012.6 |
| 20260902160059 | 31 | 58 | 4.8 | 22.5 | 0.00 | 0.00 | 0.00 | 59 | 1012.6 |
| 20260902154604 | 31 | 108 | 12.9 | 22.5 | 0.00 | 0.00 | 0.00 | 61 | 1012.8 |
| 20260902153102 | 30 | 114 | 8.0 | 14.5 | 0.00 | 0.00 | 0.00 | 62 | 1012.9 |
| 20260902151603 | 30 | 146 | 4.8 | 17.7 | 0.00 | 0.00 | 0.00 | 63 | 1012.9 |
| 20260902150104 | 30 | 128 | 8.0 | 11.3 | 0.00 | 0.00 | 0.00 | 66 | 1012.8 |
| 20260902144614 | 29 | 114 | 8.0 | 12.9 | 0.00 | 0.00 | 0.00 | 67 | 1012.7 |
| 20260902143057 | 28 | 100 | 6.4 | 9.7 | 0.00 | 0.00 | 0.00 | 69 | 1012.8 |
| 20260902141602 | 28 | 108 | 6.4 | 11.3 | 0.00 | 0.00 | 0.00 | 71 | 1012.9 |
| 20260902140106 | 27 | 102 | 9.7 | 14.5 | 0.00 | 0.00 | 0.00 | 72 | 1012.8 |
| 20260902134601 | 27 | 118 | 6.4 | 12.9 | 0.00 | 0.00 | 0.00 | 74 | 1012.8 |
| 20260902133056 | 26 | 0 | 3.2 | 11.3 | 0.00 | 0.00 | 0.00 | 75 | 1012.7 |
| 20260902131557 | 26 | 0 | 0.0 | 11.3 | 0.00 | 0.00 | 0.00 | 75 | 1012.7 |
| 20260902130106 | 26 | 0 | 4.8 | 8.0 | 0.00 | 0.00 | 0.00 | 75 | 1012.8 |
| 20260902124556 | 25 | 0 | 3.2 | 6.4 | 0.00 | 0.00 | 0.00 | 77 | 1012.7 |
| 20260902123056 | 25 | 100 | 1.6 | 8.0 | 0.00 | 0.00 | 0.00 | 78 | 1012.5 |
| 20260902121600 | 25 | 0 | 0.0 | 4.8 | 0.00 | 0.00 | 0.00 | 78 | 1012.5 |
| 20260902120058 | 25 | 0 | 0.0 | 3.2 | 0.00 | 0.00 | 0.00 | 78 | 1012.4 |
| 20260902114603 | 25 | 0 | 0.0 | 3.2 | 0.00 | 0.00 | 0.00 | 78 | 1012.3 |
| 20260902113101 | 25 | 90 | 0.0 | 1.6 | 0.00 | 0.00 | 0.00 | 78 | 1012.1 |
| 20260902111604 | 25 | 97 | 0.0 | 1.6 | 0.00 | 0.00 | 0.00 | 78 | 1012.1 |
| 20260902110108 | 25 | 0 | 0.0 | 3.2 | 0.00 | 0.00 | 0.00 | 78 | 1012.2 |
| 20260902104600 | 25 | 0 | 0.0 | 4.8 | 0.00 | 0.00 | 0.00 | 79 | 1012.2 |
| 20260902103105 | 24 | 0 | 1.6 | 6.4 | 0.00 | 0.00 | 0.00 | 82 | 1012.1 |
| 20260902101557 | 24 | 291 | 4.8 | 8.0 | 0.00 | 0.00 | 0.00 | 82 | 1012.0 |
| 20260902100115 | 24 | 285 | 1.6 | 6.4 | 0.00 | 0.00 | 0.00 | 81 | 1011.8 |
| 20260902094616 | 25 | 285 | 0.0 | 6.4 | 0.00 | 0.00 | 0.00 | 80 | 1011.8 |
| 20260902093057 | 25 | 0 | 0.0 | 1.6 | 0.00 | 0.00 | 0.00 | 79 | 1011.7 |
| 20260902091601 | 25 | 0 | 0.0 | 1.6 | 0.00 | 0.00 | 0.00 | 78 | 1011.7 |
| 20260902090055 | 25 | 0 | 0.0 | 3.2 | 0.00 | 0.00 | 0.00 | 80 | 1011.5 |
| 20260902084601 | 25 | 0 | 0.0 | 6.4 | 0.00 | 0.00 | 0.00 | 79 | 1011.5 |
| 20260902083058 | 26 | 0 | 0.0 | 1.6 | 0.00 | 0.00 | 0.00 | 76 | 1011.3 |
| 20260902081554 | 26 | 0 | 0.0 | 0.0 | 0.00 | 0.00 | 0.00 | 75 | 1011.2 |
| 20260902080113 | 26 | 198 | 0.0 | 0.0 | 0.00 | 0.00 | 0.00 | 75 | 1011.1 |
| 20260902074557 | 26 | 0 | 0.0 | 0.0 | 0.00 | 0.00 | 0.00 | 75 | 1011.1 |
| 20260902073053 | 26 | 0 | 0.0 | 0.0 | 0.00 | 0.00 | 0.00 | 74 | 1011.2 |
| 20260902071555 | 26 | 0 | 0.0 | 6.4 | 0.00 | 0.00 | 0.00 | 73 | 1011.1 |
| 20260902064609 | 27 | 0 | 1.6 | 4.8 | 0.00 | 0.00 | 0.00 | 72 | 1011.1 |
| 20260902063100 | 27 | 0 | 1.6 | 6.4 | 0.00 | 0.00 | 0.00 | 71 | 1011.1 |
| 20260902061602 | 27 | 0 | 0.0 | 3.2 | 0.00 | 0.00 | 0.00 | 71 | 1011.1 |
| 20260902060107 | 27 | 143 | 0.0 | 6.4 | 0.00 | 0.00 | 0.00 | 70 | 1011.1 |
| 20260902054557 | 27 | 0 | 0.0 | 4.8 | 0.00 | 0.00 | 0.00 | 69 | 1011.1 |
| 20260902053111 | 28 | 0 | 0.0 | 4.8 | 0.00 | 0.00 | 0.00 | 68 | 1011.2 |
| 20260902051600 | 28 | 108 | 1.6 | 6.4 | 0.00 | 0.00 | 0.00 | 68 | 1011.2 |
| 20260902050059 | 28 | 0 | 1.6 | 6.4 | 0.00 | 0.00 | 0.00 | 67 | 1011.2 |
| 20260902044601 | 28 | 139 | 1.6 | 6.4 | 0.00 | 0.00 | 0.00 | 66 | 1011.2 |
| 20260902043100 | 28 | 0 | 0.0 | 4.8 | 0.00 | 0.00 | 0.00 | 65 | 1011.2 |
| 20260902041605 | 28 | 0 | 0.0 | 4.8 | 0.00 | 0.00 | 0.00 | 65 | 1011.2 |
| 20260902040106 | 29 | 0 | 0.0 | 8.0 | 0.00 | 0.00 | 0.00 | 65 | 1011.3 |
| 20260902034607 | 29 | 168 | 0.0 | 4.8 | 0.00 | 0.00 | 0.00 | 64 | 1011.3 |
| 20260902033108 | 29 | 0 | 1.6 | 8.0 | 0.00 | 0.00 | 0.00 | 63 | 1011.2 |
| 20260902031604 | 29 | 326 | 3.2 | 8.0 | 0.00 | 0.00 | 0.00 | 64 | 1011.2 |
| 20260902030103 | 29 | 0 | 1.6 | 6.4 | 0.00 | 0.00 | 0.00 | 65 | 1011.2 |
| 20260902024608 | 29 | 0 | 0.0 | 4.8 | 0.00 | 0.00 | 0.00 | 65 | 1011.3 |
| 20260902023056 | 29 | 0 | 0.0 | 4.8 | 0.00 | 0.00 | 0.00 | 65 | 1011.3 |
| 20260902021615 | 30 | 128 | 0.0 | 4.8 | 0.00 | 0.00 | 0.00 | 63 | 1011.2 |
| 20260902020104 | 30 | 0 | 1.6 | 8.0 | 0.00 | 0.00 | 0.00 | 62 | 1011.2 |
| 20260902014555 | 30 | 0 | 0.0 | 6.4 | 0.00 | 0.00 | 0.00 | 62 | 1011.2 |
| 20260902013105 | 31 | 0 | 0.0 | 8.0 | 0.00 | 0.00 | 0.00 | 60 | 1011.1 |
| 20260902011603 | 31 | 84 | 0.0 | 8.0 | 0.00 | 0.00 | 0.00 | 60 | 1011.0 |
| 20260902004600 | 31 | 141 | 1.6 | 11.3 | 0.00 | 0.00 | 0.00 | 58 | 1010.7 |
| 20260902003104 | 31 | 210 | 1.6 | 9.7 | 0.00 | 0.00 | 0.00 | 57 | 1010.7 |
| 20260902001559 | 31 | 0 | 1.6 | 12.9 | 0.00 | 0.00 | 0.00 | 57 | 1010.8 |
| 20260902000057 | 32 | 0 | 3.2 | 14.5 | 0.00 | 0.00 | 0.00 | 56 | 1010.7 |
| 20260901234558 | 32 | 104 | 3.2 | 11.3 | 0.00 | 0.00 | 0.00 | 56 | 1010.8 |